Hourly Data Report for July 17, 2021

BORDEN AWOS
ONTARIO
Current Station Operator: DND

44°16'20.000" N
79°54'42.000" W
222.50 m
611B002
71534
YBN

Download Data

Hourly Data (July 2021)
Hourly Data Report for July 17, 2021
TIME
LST
Temp Definition
°C
Dew Point Definition
°C
Rel Hum Definition
%
Precip. Amount Definition
mm

Wind Dir Definition
10's deg

Wind Spd Definition
km/h
Visibility Definition
km
Stn Press Definition
kPa
Hmdx Definition


Wind Chill Definition


Weather Definition


00:00 14.8 14.5 98   32 4 14.5 99.20     LegendNANA
01:00 14.7 14.2 97     0 14.5 99.17     LegendNANA
02:00 14.7 14.3 97     0 14.5 99.19     LegendNANA
03:00 14.8 14.4 97     0 14.5 99.19     LegendNANA
04:00 14.7 14.2 97     0 14.5 99.20     LegendNANA
05:00 14.9 14.6 98     0 14.5 99.24     LegendNANA
06:00 15.3 15.0 98     0 14.5 99.26     LegendNANA
07:00 16.7 16.1 96     0 14.5 99.28     LegendNANA
08:00 18.4 16.8 90   2 4 14.5 99.30     LegendNANA
09:00 20.1 17.2 83   2 7 14.5 99.33 26   LegendNANA
10:00 21.6 16.9 75   7 7 14.5 99.34 27   LegendNANA
11:00 22.2 15.0 64   5 13 14.5 99.32 26   LegendNANA
12:00 22.5 14.9 62   7 9 14.5 99.33 26   LegendNANA
13:00 22.4 15.4 65   4 7 14.5 99.32 27   LegendNANA
14:00 23.0 14.6 59   6 9 14.5 99.32 27   LegendNANA
15:00 23.3 15.2 60   4 7 14.5 99.30 27   LegendNANA
16:00 23.4 16.3 64   36 7 14.5 99.27 28   LegendNANA
17:00 23.7 17.1 67   33 13 14.5 99.24 29   LegendNANA
18:00 23.1 16.4 66   34 13 14.5 99.21 28   LegendNANA
19:00 21.3 16.5 74   33 11 14.5 99.24 26   LegendNANA
20:00 19.5 16.2 81   34 6 14.5 99.27     LegendNANA
21:00 19.1 15.8 81   35 6 14.5 99.32     LegendNANA
22:00 18.0 15.7 86   34 6 14.5 99.33     LegendNANA
23:00 16.9 15.4 91   35 4 14.5 99.33     LegendNANA

Notes on Data Quality.

Legend

  • E = Estimated
  • M = Missing
  • NA = Not Available*
  • [empty] = Indicates an unobserved value
Date modified: